Showing default

AETHER-8, 67379

Orbit data source: Space-Track

AETHER-8, 67379 is a payload satellite owned by Kepler Comms (CA) in SSO that was launched on Sun, 11 Jan 2026 UTC via an FALCON 9 launch vehicle from the Air Force Western Test Range (AFWTR). Payload-class satellites include a variety of spacecraft equipped with specific instruments for various scientific and technological missions. These include communications satellites like Starlink; space stations such as the ISS; scientific satellites like the Hubble; Earth observation satellites from companies like Planet Labs, Umbra, and HawkEye 360; GPS; miniature CubeSats for education and research; and military/defense satellites.

Loading next visibility...
Identifier
67379, 2026-004S
Orbit
SSO
Country
Flag of CACA
Related business
Manufacturer
Kepler Comms
Mission
Operational Commercial Communications
Bus & Motor
KEPLER GEN2B, Unknown motor
Mass
300 kg wet, 300 kg dry
Launch date (UTC)
2026-01-11 (8 months ago)
Launch vehicle
FALCON 9
Launch site
Air Force Western Test Range (AFWTR)
Object type
Payload
Rocket body
Debris
Shape & HBR
Box + 2 Pan, 7.6 m
Radar Cross Section
4.448 m², Large (>1 m²)

Expand to show TLE details & history
Last TLE update: 12 hours ago

TLE from 12 hours ago
0 AETHER-8
1 67379U 26004S   26264.28512277  .00000355  00000-0  46783-4 0  9993
2 67379  97.8089 261.0388 0000874 166.1672 193.9568 14.85898637 37551
Epoch: 2026-09-21T06:50Z
TLE epoch observation values (Epoch: 2026-09-21T06:50:34.607Z)
Latitude
0.00004°
Longitude
158.22745°
Altitude
614.392 km
Speed
7.552 km/s
True Right ascension
17h 24m 09s
True Declination
0° 00' 00"
Sunlit
Object was in daylight at epoch
Visualization orbit readout
Latitude
Unknown
Longitude
Unknown
Altitude
Unknown
Speed
Unknown
Apparent Right ascension
Unknown
Apparent Declination
Unknown
Sunlit
N/A
Visualization observer readout
Local Sidereal Time
11:33:04
Azimuth
Unknown
Elevation
Unknown
Doppler factor
Unknown
Orbital elements
Apogee altitude
608.406 km
Perigee altitude
607.185 km
Semi-major axis
6,985.933 km
Eccentricity
0.00009
Inclination
97.8089°
RAAN
261.0388°
Arg. of periapsis
166.1672°
True anomaly
193.95438°
Mean anomaly
193.9568°
Eccentric anomaly
193.95559°
Mean motion
3.71712 °/min
Orbital period
96.85 mins
BSTAR
0.000046783
Loading maneuver chart data...
Computing Atmospheric mass density...
Loading historical data...
Loading historical data...
Loading historical data...
Loading historical data...
Loading historical data...
Loading historical data...
Loading historical data...

Documentation

Showing up to 5 results
|